Regional Weather Roundup
Issued by NWS

Home | Current Version | Previous Version | Text Only | Print | Product List | Glossary Off
Versions: 1 2 3 4 5 6 7 8 9 10 11 12 13 14 15 16 17 18 19 20 21 22 23 24 25 26 27 28 29 30 31 32 33 34 35 36 37 38 39 40 41 42 43 44 45 46 47 48 49 50

000
ASUS43 KLSX 221707
RWRMO

WEATHER SUMMARY FOR MISSOURI
NATIONAL WEATHER SERVICE SPRINGFIELD MO
1100 AM CST SAT NOV 22 2014

NOTE: "FAIR" INDICATES FEW OR NO CLOUDS BELOW 12,000 FEET WITH NO
       SIGNIFICANT WEATHER AND/OR OBSTRUCTIONS TO VISIBILITY.
       CURRENT SKY AND/OR WEATHER CONDITIONS ARE NOT AVAILABLE FOR
       CHILLICOTHE AND FARMINGTON.

MOZ001>031-035>038-043-044-053-054-221800-
...NORTHERN AND WESTERN MISSOURI...

CITY           SKY/WX    TMP DP  RH WIND       PRES   REMARKS
KANSAS CTY INT CLOUDY    56  55  97 S20G30    29.90F FOG
KANSAS C DTWN  CLOUDY    58  54  86 S15G22    29.92F
ST JOSEPH      FOG       50  50 100 SW6       29.90F VSB 1/4
CHILLICOTHE      N/A     57  52  83 S10G21    29.93F
KIRKSVILLE     CLOUDY    57  50  77 SW9G21    29.94F

$$
MOZ066>068-077>081-088>096-101>105-221800-
...SOUTHWEST MISSOURI...

CITY           SKY/WX    TMP DP  RH WIND       PRES   REMARKS
SPRINGFIELD    CLOUDY    56  49  77 S15       30.04F
JOPLIN         CLOUDY    57  52  83 S18G25    30.02F

$$
MOZ032>034-039>042-045>050-055>058-069>072-221800-
...CENTRAL MISSOURI...

CITY           SKY/WX    TMP DP  RH WIND       PRES   REMARKS
COLUMBIA       CLOUDY    58  49  72 S13       30.01F
JEFFERSON CITY CLOUDY    58  48  69 S9        30.03F
ROLLA          CLOUDY    55  46  71 S14       30.05F
SEDALIA        CLOUDY    58  50  75 S18       30.00F
WHITEMAN AFB   PTSUNNY   57  52  82 SW16G23   29.97F
WARRENSBURG    CLOUDY    55  50  82 S10G16    29.97F
OSAGE BEACH    CLOUDY    57  46  67 S10       30.04F

$$
MOZ051-052-059>065-221800-
...EAST CENTRAL MISSOURI...

CITY           SKY/WX    TMP DP  RH WIND       PRES   REMARKS
ST LOUIS INTL  CLOUDY    58  46  64 SW14G22   30.07F
SPIRIT OF STL  CLOUDY    57  46  66 S12       30.06F
ST CHARLES     CLOUDY    57  47  69 S14G22    30.06F

$$
MOZ072>076-082>087-097>100-106>115-221800-
...SOUTH CENTRAL AND SOUTHEAST MISSOURI...

CITY           SKY/WX    TMP DP  RH WIND       PRES   REMARKS
CAPE GIRARDEAU CLOUDY    57  47  69 S15G21    30.19F
FARMINGTON     CLOUDY    54  46  76 SE15G23   30.14F
POPLAR BLUFF   PTSUNNY   60  48  64 S16       30.16F
WEST PLAINS    LGT RAIN  52  46  80 S9        30.13S

$$



USA.gov is the U.S. government's official web portal to all federal, state and local government web resources and services.